[[{"header":{"parameterUnit":"m.s-1","parameterCategory":1,"la1":30.2991,"la2":30.254,"lo1":-89.0895,"lo2":-89.0444,"dy":0.0017,"dx":0.0017,"nx":28,"ny":28,"refTime":"2025-02-11T09:00:00:Z","depth":0,"parameterNumber":2,"parameterNumberName":"U-component_of_WINDS"},"data":[0,0,0,0,0,0,0,0,0,0,0,0,0,0,0,0,0,0,0,0,0,0,0,0,0,0,0,0,0,0,0,0,0,0,0,0,0,0,0,0,0,0,0,0,0,0,0,0,0,0,0,0,0,0,0,0,0,0,-0.2298,-0.2298,0,-0.2267,-0.2267,-0.2267,-0.2287,-0.2288,-0.2289,-0.229,-0.2256,-0.2254,-0.2252,0,0,0,0,0,0,0,0,0,0,0,0,0,-0.2371,-0.237,-0.2298,-0.2298,-0.2298,-0.2267,-0.2267,-0.2267,-0.2287,-0.2288,-0.2289,-0.229,-0.2257,-0.2254,-0.2252,0,0,0,0,0,0,0,0,0,0,0,0,0,-0.234,-0.2369,-0.2298,-0.2304,-0.2304,-0.2268,-0.2267,-0.2267,-0.2287,-0.2288,-0.229,-0.2291,-0.2257,-0.2255,-0.2252,-0.2207,0,0,-0.2244,-0.2243,0,0,0,0,0,0,0,0,-0.2342,-0.2337,-0.2304,-0.2304,-0.2304,-0.2283,-0.228,-0.2247,-0.2286,-0.2293,-0.229,-0.2292,-0.2263,-0.226,-0.2251,-0.2206,-0.2204,-0.2244,-0.2242,-0.2241,-0.224,0,0,0,0,0,0,0,-0.2344,-0.2338,-0.2286,-0.2303,-0.2303,-0.2307,-0.2304,-0.2274,-0.2271,-0.2293,-0.2294,-0.229,-0.2264,-0.2254,-0.2251,-0.2204,-0.2244,-0.2241,-0.224,-0.2239,-0.2116,-0.2114,0,0,0,0,0,0,-0.2346,-0.234,-0.2287,-0.2285,-0.2327,-0.2305,-0.2301,-0.2288,-0.2271,-0.227,-0.2289,-0.2291,-0.2258,-0.2254,-0.225,-0.2194,-0.2241,-0.2238,-0.2237,-0.2117,-0.2115,-0.2114,0,0,0,0,0,0,-0.2347,-0.2341,-0.2288,-0.2313,-0.2307,-0.2302,-0.2287,-0.2287,-0.2277,-0.2269,-0.2268,-0.228,-0.2259,-0.2253,-0.2217,-0.2193,-0.2237,-0.2235,-0.2119,-0.2117,-0.2114,-0.2083,0,0,0,0,0,0,-0.2349,-0.2341,-0.2325,-0.2313,-0.2305,-0.2257,-0.2285,-0.2285,-0.2272,-0.2275,-0.226,-0.2258,-0.2259,-0.2221,-0.2214,-0.219,-0.2233,-0.2121,-0.2118,-0.2115,-0.2086,-0.208,-0.2074,0,0,0,0,0,-0.2352,-0.2318,-0.2324,-0.2318,-0.2285,-0.2256,-0.2252,-0.2254,-0.2271,-0.2253,-0.2248,-0.2259,-0.2197,-0.2217,-0.221,-0.2184,-0.2123,-0.2119,-0.2115,-0.2089,-0.2081,-0.2074,0,0,0,0,0,0,-0.2328,-0.2317,-0.2324,-0.2285,-0.2271,-0.226,-0.2238,-0.2246,-0.2227,-0.2231,-0.2234,-0.223,-0.2191,-0.2184,-0.2207,-0.2138,-0.2162,-0.2157,-0.2144,-0.2137,-0.2131,-0.2133,-0.223,0,0,0,0,0,-0.2319,-0.2297,-0.2287,-0.2254,-0.2247,-0.2243,-0.2231,-0.2234,-0.222,-0.2214,-0.2205,-0.219,-0.2167,-0.2152,-0.213,-0.2085,-0.2081,-0.2064,-0.2058,-0.2053,-0.2048,-0.2021,-0.2012,-0.2101,-0.2101,-0.2101,0,0,-0.2298,-0.2289,-0.2275,-0.2249,-0.2239,-0.2214,-0.2239,-0.2213,-0.2194,-0.221,-0.2174,-0.2167,-0.215,-0.2109,-0.209,-0.2101,-0.2022,-0.2048,-0.2045,-0.2042,-0.2016,-0.2007,-0.2,-0.2099,-0.2099,-0.21,0,0,-0.2249,-0.224,-0.221,-0.2199,-0.2183,-0.2181,-0.2173,-0.216,-0.2156,-0.212,-0.2131,-0.2108,-0.2069,-0.2055,-0.2043,-0.1985,-0.1994,-0.1978,-0.1947,-0.192,-0.1913,-0.1907,-0.1884,-0.1876,-0.1973,-0.1973,-0.1973,0,-0.2225,-0.219,-0.2194,-0.2166,-0.2153,-0.2166,-0.2134,-0.2123,-0.21,-0.209,-0.2104,-0.2053,-0.2043,-0.1996,-0.1982,-0.1973,-0.1962,-0.198,-0.1914,-0.1908,-0.1902,-0.188,-0.1871,-0.1971,-0.1972,-0.1972,-0.1972,0,-0.2161,-0.2136,-0.2113,-0.209,-0.2075,-0.2045,-0.2043,-0.2027,-0.203,-0.2026,-0.1988,-0.1976,-0.195,-0.194,-0.1944,-0.1893,-0.19,-0.1914,-0.1938,-0.1891,-0.187,-0.1862,-0.1969,-0.1969,-0.197,-0.197,0,0,-0.2096,-0.2075,-0.2066,-0.2055,-0.2037,-0.2017,-0.1986,-0.1962,-0.1946,-0.193,-0.1903,-0.1868,-0.188,-0.1866,-0.1868,-0.1845,-0.1796,-0.186,-0.186,-0.1847,-0.1736,-0.1725,-0.1716,-0.1802,-0.18,-0.1799,-0.1737,0,-0.2044,-0.1992,-0.1993,-0.1944,-0.1919,-0.193,-0.1903,-0.1888,-0.1883,-0.186,-0.1853,-0.1827,-0.1846,-0.1837,-0.1815,-0.1807,-0.1773,-0.1811,-0.1775,-0.1773,-0.1777,-0.1705,-0.1694,-0.1636,-0.1729,-0.1728,-0.1727,0,-0.1976,-0.1957,-0.1905,-0.1888,-0.1877,-0.1854,-0.1829,-0.1808,-0.179,-0.1788,-0.1771,-0.1776,-0.1743,-0.1768,-0.1721,-0.1746,-0.1731,-0.1725,-0.1722,-0.1718,-0.1746,-0.1697,-0.1618,-0.1609,-0.1714,-0.1715,-0.1716,0,-0.1932,-0.1892,-0.1856,-0.1846,-0.1826,-0.1808,-0.1799,-0.1782,-0.1766,-0.1745,-0.1734,-0.1709,-0.1695,-0.1674,-0.1671,-0.1691,-0.1623,-0.1649,-0.1618,-0.1618,-0.1603,-0.1603,-0.1519,-0.1595,-0.1596,-0.1596,-0.1596,0,-0.1872,-0.184,-0.1835,-0.1812,-0.1775,-0.1776,-0.1738,-0.173,-0.1715,-0.1689,-0.1697,-0.1673,-0.1671,-0.1645,-0.1642,-0.1602,-0.1596,-0.1591,-0.1591,-0.159,-0.159,-0.1579,-0.1583,-0.1593,-0.1594,-0.1594,-0.1595,0,-0.1816,-0.1812,-0.1772,-0.1756,-0.1751,-0.1724,-0.1709,-0.1686,-0.168,-0.1647,-0.164,-0.1631,-0.16,-0.1595,-0.156,-0.1558,-0.1509,-0.1513,-0.1515,-0.1515,-0.1484,-0.1486,-0.1388,-0.1374,-0.1461,-0.146,-0.146,0,-0.1778,-0.1753,-0.1733,-0.1717,-0.1706,-0.168,-0.1663,-0.1662,-0.1644,-0.162,-0.1599,-0.157,-0.1546,-0.1497,-0.1486,-0.1458,-0.146,-0.1428,-0.1456,-0.1455,-0.1457,-0.1458,-0.1454,-0.1422,-0.1421,-0.142,-0.142,0,-0.171,-0.1708,-0.1685,-0.1659,-0.1639,-0.1619,-0.16,-0.1585,-0.1581,-0.1561,-0.153,-0.1511,-0.1474,-0.1443,-0.1415,-0.1404,-0.141,-0.1411,-0.1402,-0.14,-0.1401,-0.1398,-0.1498,-0.1413,-0.1414,-0.1414,-0.1415,-0.1415,-0.166,-0.1637,-0.1619,-0.1591,-0.1577,-0.1558,-0.1535,-0.1526,-0.15,-0.147,-0.1471,-0.1436,-0.1415,-0.1378,-0.1364,-0.1336,-0.1346,-0.1334,-0.133,-0.1327,-0.1323,-0.1407,-0.1331,-0.1331,-0.1331,-0.1331,-0.1331,0,-0.1591,-0.1579,-0.1554,-0.1526,-0.1503,-0.1512,-0.149,-0.147,-0.144,-0.1421,-0.1397,-0.1359,-0.1329,-0.1315,-0.1285,-0.1264,-0.1266,-0.1256,-0.1257,-0.1254,-0.1316,-0.1326,-0.1255,-0.1255,-0.1255,-0.1255,-0.1255,-0.1255,-0.1552,-0.1513,-0.1508,-0.1461,-0.1449,-0.1415,-0.1402,-0.1384,-0.1368,-0.1326,-0.1301,-0.1292,-0.1274,-0.1242,-0.1214,-0.121,-0.1198,-0.1186,-0.1183,-0.1242,-0.125,-0.1257,-0.1266,-0.1184,-0.1184,-0.1123,-0.1122,-0.1122]},{"header":{"parameterUnit":"m.s-1","parameterCategory":1,"la1":30.2991,"la2":30.254,"lo1":-89.0895,"lo2":-89.0444,"dy":0.0017,"dx":0.0017,"nx":28,"ny":28,"refTime":"2025-02-11T09:00:00:Z","depth":0,"parameterNumber":3,"parameterNumberName":"V-component_of_WINDS"},"data":[0,0,0,0,0,0,0,0,0,0,0,0,0,0,0,0,0,0,0,0,0,0,0,0,0,0,0,0,0,0,0,0,0,0,0,0,0,0,0,0,0,0,0,0,0,0,0,0,0,0,0,0,0,0,0,0,0,0,6.4265,6.4267,0,6.4474,6.4476,6.4479,6.4499,6.4497,6.4495,6.4493,6.47,6.4707,6.4715,0,0,0,0,0,0,0,0,0,0,0,0,0,6.3875,6.3882,6.4264,6.4267,6.427,6.4474,6.4476,6.4479,6.45,6.4497,6.4494,6.4492,6.4698,6.4707,6.4716,0,0,0,0,0,0,0,0,0,0,0,0,0,6.406,6.3885,6.4264,6.4305,6.431,6.4473,6.4477,6.448,6.45,6.4497,6.4494,6.4491,6.4695,6.4706,6.4717,6.4851,0,0,6.4751,6.4756,0,0,0,0,0,0,0,0,6.405,6.4074,6.4296,6.4302,6.4309,6.4457,6.4415,6.4604,6.4501,6.4428,6.4493,6.4489,6.4621,6.4639,6.4685,6.4861,6.487,6.4752,6.4759,6.4764,6.4767,0,0,0,0,0,0,0,6.4037,6.4066,6.4347,6.4299,6.4307,6.431,6.4333,6.4451,6.454,6.4434,6.4436,6.4461,6.4624,6.4674,6.469,6.4873,6.4752,6.4762,6.4769,6.4773,6.5171,6.5175,0,0,0,0,0,0,6.4017,6.4055,6.434,6.4353,6.4169,6.432,6.4345,6.4413,6.4539,6.4555,6.4463,6.4461,6.4656,6.4677,6.4697,6.4865,6.4764,6.4774,6.4781,6.5168,6.5172,6.5176,0,0,0,0,0,0,6.4009,6.4043,6.4332,6.4205,6.4242,6.433,6.4406,6.4419,6.4468,6.4561,6.4576,6.4498,6.4654,6.4681,6.4814,6.4872,6.478,6.479,6.5163,6.5169,6.5174,6.5201,0,0,0,0,0,0,6.3998,6.404,6.4093,6.4206,6.4249,6.4447,6.4409,6.4425,6.4489,6.4488,6.4598,6.4613,6.4654,6.4797,6.4825,6.4886,6.4799,6.5158,6.5166,6.5172,6.5195,6.5206,6.5216,0,0,0,0,0,6.3984,6.409,6.4096,6.413,6.4318,6.4451,6.4475,6.4522,6.4493,6.4547,6.4607,6.461,6.4861,6.481,6.4842,6.4908,6.5155,6.5164,6.5172,6.519,6.5204,6.5216,0,0,0,0,0,0,6.3979,6.4106,6.4113,6.426,6.4345,6.4454,6.4523,6.4535,6.4628,6.4622,6.4674,6.4699,6.483,6.4881,6.4823,6.5045,6.5005,6.502,6.5008,6.5022,6.5032,6.5018,6.4808,0,0,0,0,0,6.3996,6.4095,6.4199,6.4318,6.4361,6.4435,6.4494,6.4523,6.4612,6.4647,6.4717,6.4801,6.4899,6.4963,6.5058,6.5201,6.5226,6.5262,6.5273,6.5281,6.5294,6.5376,6.5394,6.5204,6.5204,6.5204,0,0,6.403,6.4111,6.417,6.4319,6.4389,6.4489,6.4465,6.4571,6.4646,6.4663,6.4794,6.4847,6.4944,6.5084,6.5148,6.5131,6.5352,6.5292,6.5298,6.5307,6.5387,6.5405,6.5421,6.521,6.5209,6.5208,0,0,6.4145,6.4215,6.4324,6.4395,6.4501,6.4549,6.4575,6.4683,6.4721,6.4853,6.4868,6.4956,6.5123,6.5193,6.525,6.5392,6.5399,6.5421,6.5478,6.5557,6.5572,6.5586,6.5639,6.5657,6.5433,6.5433,6.5433,0,6.4173,6.4328,6.4377,6.4486,6.4551,6.4573,6.4683,6.4747,6.4877,6.4921,6.49,6.5112,6.5179,6.5336,6.5371,6.5415,6.5446,6.541,6.5566,6.558,6.5594,6.5645,6.5664,6.5436,6.5435,6.5435,6.5435,0,6.436,6.4466,6.454,6.467,6.4743,6.4851,6.4915,6.4983,6.5005,6.5055,6.519,6.527,6.5384,6.5422,6.5443,6.5583,6.5569,6.5556,6.5517,6.5613,6.5662,6.5682,6.5439,6.5438,6.5437,6.5437,0,0,6.4479,6.4636,6.4662,6.4722,6.4841,6.4923,6.5031,6.5145,6.5203,6.529,6.5383,6.5525,6.5515,6.5579,6.5608,6.5677,6.5787,6.5656,6.5659,6.568,6.5948,6.596,6.5981,6.5791,6.5795,6.5798,6.5941,0,6.461,6.4808,6.4855,6.5023,6.5123,6.5145,6.5239,6.5321,6.537,6.546,6.5513,6.5615,6.5591,6.5631,6.57,6.5759,6.5842,6.5749,6.5878,6.5882,6.5857,6.6007,6.6019,6.615,6.596,6.5963,6.5966,0,6.479,6.4887,6.5066,6.5173,6.5217,6.5301,6.541,6.5495,6.5588,6.5619,6.5692,6.5715,6.5827,6.578,6.5935,6.5871,6.5926,6.5962,6.5968,6.5985,6.5932,6.603,6.6193,6.6214,6.5996,6.5993,6.5991,0,6.4863,6.5037,6.5168,6.5218,6.5345,6.5404,6.546,6.5549,6.5615,6.5708,6.5751,6.5855,6.5912,6.5991,6.6041,6.6002,6.6193,6.615,6.6222,6.6221,6.6264,6.6262,6.6442,6.6294,6.6294,6.6293,6.6293,0,6.5007,6.5116,6.5203,6.5284,6.5407,6.5458,6.5578,6.5633,6.5713,6.5803,6.5825,6.5909,6.5968,6.606,6.6098,6.6222,6.6247,6.6275,6.6285,6.6275,6.6272,6.6314,6.6308,6.6299,6.6297,6.6296,6.6295,0,6.5111,6.5173,6.5318,6.5427,6.5457,6.5543,6.5636,6.5714,6.5763,6.5878,6.5907,6.5985,6.6094,6.615,6.6285,6.6311,6.6452,6.6454,6.6422,6.6427,6.6497,6.6491,6.6714,6.6746,6.6573,6.6575,6.6576,0,6.52,6.5286,6.5405,6.5469,6.5527,6.5628,6.5696,6.5749,6.5819,6.5931,6.5996,6.6106,6.6199,6.6371,6.6438,6.6542,6.6549,6.6619,6.6565,6.6553,6.6554,6.655,6.656,6.663,6.6632,6.6633,6.6634,0,6.5353,6.538,6.5479,6.5589,6.567,6.5758,6.5845,6.5895,6.5962,6.6038,6.6152,6.6223,6.6363,6.6473,6.6581,6.6636,6.6647,6.6651,6.6674,6.6667,6.6646,6.6662,6.6452,6.6646,6.6645,6.6644,6.6643,6.6643,6.5456,6.5533,6.5631,6.574,6.5811,6.5892,6.5972,6.6032,6.6129,6.6249,6.6273,6.6393,6.6483,6.6631,6.6689,6.6783,6.6768,6.68,6.6809,6.6817,6.6822,6.6628,6.6802,6.6802,6.6801,6.6801,6.6801,0,6.5613,6.5676,6.5776,6.5899,6.5985,6.5988,6.6085,6.6156,6.6263,6.6347,6.6438,6.6568,6.6675,6.675,6.6859,6.6919,6.6927,6.6946,6.6944,6.6957,6.6828,6.6799,6.6938,6.6938,6.6938,6.6938,6.6938,6.6938,6.5705,6.5838,6.5876,6.6044,6.6106,6.6227,6.6282,6.6357,6.6425,6.6571,6.6661,6.671,6.679,6.6905,6.7003,6.7022,6.7062,6.7082,6.7101,6.698,6.6966,6.6952,6.6925,6.7089,6.7089,6.7224,6.7225,6.7226]}]]